Tracking 19847 objects as of 17-Sep-2019
HD Live streaming from Space Station
objects crossing your sky now

DMSP 5D-2 F11 DEB

Track DMSP 5D-2 F11 DEB now!
10-day predictions


NORAD ID: 29089
Int'l Code: 1991-082CJ
Perigee: 604.6 km
Apogee: 616.9 km
Inclination: 98.6 °
Period: 96.8 minutes
Semi major axis: 6981 km
RCS: 0.0065 m2 (small)
Launch date: November 28, 1991
Source: United States (US)
Launch site: AIR FORCE WESTERN TEST RANGE (AFWTR)

Note: This is SATELLITE DEBRIS
aabbcc
Your satellite tracking list
Your tracking list is empty




NASA's NSSDC Master Catalog

Two Line Element Set (TLE):
1 29089U 91082CJ  19259.26069650  .00006334  00000-0  69305-3 0  9990
2 29089  98.5991  62.3149 0008843 102.4774  21.2201 14.88189213804324
Source of the keplerian elements: AFSPC